Flag for Portugal

Past Weather in Coimbra, Portugal — Yesterday and Last 2 Weeks

Now
63 °F

Clear.


Feels Like: 63 °F
Forecast: 86 / 57 °F
Wind: No wind

Location: Porto / Pedras Rubras

Current Time: Aug 5, 2020 at 12:39:33 am

Latest Report: Aug 5, 2020 at 12:00 am


Visibility: 10 mi

Pressure: 29.92 "Hg

Humidity: 88%

Dew Point: 59 °F

Location of CoimbraLocation

Past Weather in Coimbra — Graph

°F

Coimbra Temperature Yesterday

Maximum temperature yesterday: 79 °F (at 12:30 pm)
Minimum temperature yesterday: 55 °F (at 7:00 am)
Average temperature yesterday: 68 °F

High & Low Weather Summary for the Past Weeks

 TemperatureHumidityPressure
High86 °F (Jul 21, 1:00 pm)100% (Jul 21, 1:00 am)30.18 "Hg (Jul 21, 1:00 am)
Low55 °F (Jul 27, 6:30 am)49% (Jul 21, 1:00 pm)29.86 "Hg (Jul 29, 7:00 pm)
Average66 °F84%30.02 "Hg
* Reported Jul 20 11:00 pm — Aug 4 11:00 pm, Coimbra. Weather by CustomWeather, © 2020

Note: Actual official high and low records may vary slightly from our data, if they occured in-between our weather recording intervals... More about our weather records

Coimbra Weather History for the Previous 24 Hours

Scroll right to see more
 ConditionsComfort  
Time TempWeatherWind HumidityBarometerVisibility
11:00 pm
Tue, Aug 4
63 °FClear.No wind88%29.92 "Hg10 mi
10:30 pm64 °FClear.3 mph88%29.92 "Hg10 mi
10:00 pm64 °FClear.6 mph88%29.92 "Hg10 mi
9:30 pm66 °FClear.5 mph83%29.92 "Hg10 mi
9:00 pm68 °FClear.10 mph78%29.92 "Hg10 mi
8:30 pm68 °FSunny.10 mph78%29.92 "Hg10 mi
8:00 pm68 °FPassing clouds.9 mph78%29.92 "HgN/A
7:30 pm70 °FPassing clouds.8 mph73%29.92 "HgN/A
7:00 pm72 °FPassing clouds.8 mph69%29.92 "HgN/A
6:30 pm73 °FSunny.9 mph65%29.92 "Hg10 mi
6:00 pm72 °FPassing clouds.10 mph69%29.92 "HgN/A
5:30 pm73 °FPassing clouds.13 mph65%29.95 "HgN/A
5:00 pm75 °FSunny.12 mph61%29.95 "Hg10 mi
4:30 pm77 °FWarm.13 mph57%29.95 "HgN/A
4:00 pm79 °FSunny.13 mph54%29.95 "Hg10 mi
3:30 pm79 °FPassing clouds.13 mph54%29.95 "HgN/A
3:00 pm77 °FSunny.13 mph54%29.95 "Hg10 mi
2:30 pm77 °FPassing clouds.13 mph57%29.98 "HgN/A
2:00 pm77 °FSunny.12 mph57%29.98 "Hg10 mi
1:30 pm79 °FSunny.9 mph54%29.98 "Hg10 mi
1:00 pm77 °FSunny.9 mph57%29.98 "Hg10 mi
12:30 pm79 °FPassing clouds.7 mph58%30.01 "HgN/A
12:00 pm77 °FPassing clouds.8 mph61%30.01 "HgN/A
11:30 am75 °FPassing clouds.7 mph65%30.01 "HgN/A
11:00 am73 °FPassing clouds.7 mph69%30.01 "HgN/A
10:30 am75 °FPassing clouds.6 mph65%30.01 "HgN/A
10:00 am72 °FPassing clouds.7 mph69%30.01 "HgN/A
9:30 am68 °FPassing clouds.7 mph83%30.01 "HgN/A
9:00 am66 °FSunny.6 mph83%30.01 "Hg10 mi
8:30 am63 °FSunny.6 mph94%30.01 "Hg10 mi
8:00 am61 °FSunny.No wind94%30.01 "Hg10 mi
7:30 am59 °FSunny.No wind94%30.01 "Hg10 mi
7:00 am55 °FSunny.No wind100%30.01 "Hg10 mi
6:30 am57 °FClear.No wind94%30.01 "Hg10 mi
6:00 am57 °FClear.No wind100%30.01 "Hg10 mi
5:30 am57 °FClear.No wind100%30.01 "Hg10 mi
5:00 am57 °FClear.No wind100%30.01 "Hg10 mi
4:30 am59 °FClear.No wind94%30.01 "Hg10 mi
4:00 am59 °FClear.No wind94%30.01 "Hg10 mi
3:30 am57 °FClear.3 mph94%30.01 "Hg5 mi
3:00 am61 °FPassing clouds.5 mph94%30.04 "HgN/A
2:30 am61 °FClear.2 mph94%30.04 "Hg10 mi
1:30 am61 °FClear.1 mph94%30.04 "Hg10 mi
12:30 am61 °FClear.7 mph94%30.04 "Hg10 mi
12:00 am61 °FClear.5 mph100%30.04 "Hg10 mi
Weather by CustomWeather, © 2020

See weather overview